TimeCDT,TemperatureF,Dew PointF,Humidity,Sea Level PressureIn,VisibilityMPH,Wind Direction,Wind SpeedMPH,Gust SpeedMPH,PrecipitationIn,Events,Conditions,WindDirDegrees,DateUTC
12:12 AM,42.8,39.2,87,29.97,10.0,ESE,4.6,-,N/A,,Scattered Clouds,110,2011-10-25 05:12:00
12:32 AM,42.8,39.2,87,29.96,10.0,Calm,Calm,-,N/A,,Mostly Cloudy,0,2011-10-25 05:32:00
12:52 AM,42.8,39.2,87,29.95,10.0,Calm,Calm,-,N/A,,Overcast,0,2011-10-25 05:52:00
1:12 AM,42.8,39.2,87,29.94,10.0,ENE,4.6,-,N/A,,Scattered Clouds,70,2011-10-25 06:12:00
1:32 AM,42.8,39.2,87,29.93,10.0,ENE,4.6,-,N/A,,Scattered Clouds,70,2011-10-25 06:32:00
1:53 AM,46.4,42.8,87,29.91,10.0,ENE,6.9,-,N/A,,Mostly Cloudy,60,2011-10-25 06:53:00
2:12 AM,46.4,42.8,87,29.91,10.0,ENE,8.1,-,N/A,,Mostly Cloudy,60,2011-10-25 07:12:00
2:32 AM,46.4,41.0,81,29.90,10.0,ENE,9.2,-,N/A,,Scattered Clouds,70,2011-10-25 07:32:00
3:12 AM,46.4,41.0,81,29.89,10.0,ENE,8.1,-,N/A,,Scattered Clouds,60,2011-10-25 08:12:00
3:33 AM,46.4,39.2,76,29.87,10.0,ENE,9.2,-,N/A,,Clear,60,2011-10-25 08:33:00
3:52 AM,46.4,39.2,76,29.86,10.0,NE,9.2,-,N/A,,Clear,50,2011-10-25 08:52:00
4:12 AM,46.4,39.2,76,29.85,10.0,NE,9.2,-,N/A,,Clear,50,2011-10-25 09:12:00
4:32 AM,46.4,39.2,76,29.84,10.0,ENE,10.4,-,N/A,,Clear,60,2011-10-25 09:32:00
4:52 AM,46.4,39.2,76,29.84,10.0,ENE,9.2,-,N/A,,Clear,60,2011-10-25 09:52:00
5:12 AM,46.4,39.2,76,29.85,10.0,ENE,9.2,-,N/A,,Clear,70,2011-10-25 10:12:00
5:32 AM,46.4,39.2,76,29.85,10.0,NE,10.4,-,N/A,,Clear,50,2011-10-25 10:32:00
5:52 AM,46.4,39.2,76,29.84,10.0,NE,8.1,-,N/A,,Clear,50,2011-10-25 10:52:00
6:12 AM,46.4,37.4,71,29.85,10.0,NE,10.4,-,N/A,,Clear,50,2011-10-25 11:12:00
6:32 AM,46.4,37.4,71,29.85,10.0,NE,8.1,-,N/A,,Clear,50,2011-10-25 11:32:00
6:52 AM,46.4,37.4,71,29.85,10.0,NE,10.4,-,N/A,,Clear,50,2011-10-25 11:52:00
7:12 AM,46.4,37.4,71,29.85,10.0,ENE,11.5,-,N/A,,Clear,60,2011-10-25 12:12:00
7:32 AM,46.4,37.4,71,29.84,10.0,NE,10.4,16.1,N/A,,Clear,50,2011-10-25 12:32:00
7:52 AM,46.4,35.6,66,29.84,10.0,ENE,15.0,19.6,N/A,,Clear,60,2011-10-25 12:52:00
8:12 AM,46.4,37.4,71,29.83,10.0,ENE,16.1,20.7,N/A,,Clear,70,2011-10-25 13:12:00
8:32 AM,46.4,37.4,71,29.83,10.0,ENE,16.1,21.9,N/A,,Clear,70,2011-10-25 13:32:00
8:52 AM,48.2,37.4,66,-9999,10.0,ENE,15.0,21.9,N/A,,Clear,70,2011-10-25 13:52:00
9:12 AM,48.2,37.4,66,29.83,-9999.0,ENE,16.1,23.0,N/A,,Clear,70,2011-10-25 14:12:00
9:32 AM,-9999,37.4,N/A,29.83,10.0,ENE,15.0,-,N/A,,Clear,60,2011-10-25 14:32:00
9:52 AM,48.2,37.4,66,29.82,10.0,East,18.4,-,N/A,,Clear,80,2011-10-25 14:52:00
10:12 AM,48.2,37.4,66,29.83,10.0,ENE,17.3,26.5,N/A,,Clear,70,2011-10-25 15:12:00
10:32 AM,50.0,39.2,66,29.84,10.0,ENE,18.4,31.1,N/A,,Clear,70,2011-10-25 15:32:00
10:52 AM,50.0,39.2,66,29.84,10.0,ENE,16.1,23.0,N/A,,Clear,60,2011-10-25 15:52:00
11:12 AM,51.8,39.2,62,29.84,10.0,ENE,16.1,-,N/A,,Clear,70,2011-10-25 16:12:00
11:32 AM,51.8,39.2,62,29.83,10.0,ENE,20.7,24.2,N/A,,Clear,60,2011-10-25 16:32:00
11:53 AM,51.8,39.2,62,29.82,10.0,ENE,17.3,25.3,N/A,,Clear,70,2011-10-25 16:53:00
12:12 PM,53.6,39.2,58,29.83,10.0,NE,18.4,24.2,N/A,,Clear,50,2011-10-25 17:12:00
12:32 PM,53.6,39.2,58,29.82,10.0,NE,16.1,24.2,N/A,,Clear,50,2011-10-25 17:32:00
12:52 PM,53.6,39.2,58,29.82,10.0,NE,15.0,25.3,N/A,,Scattered Clouds,50,2011-10-25 17:52:00
1:12 PM,53.6,39.2,58,29.82,10.0,NE,12.7,-,N/A,,Mostly Cloudy,50,2011-10-25 18:12:00
1:32 PM,51.8,39.2,62,29.82,10.0,NE,15.0,24.2,N/A,,Overcast,50,2011-10-25 18:32:00
1:52 PM,51.8,39.2,62,29.81,10.0,NE,17.3,24.2,N/A,,Overcast,40,2011-10-25 18:52:00
2:12 PM,51.8,39.2,62,29.82,10.0,NE,17.3,24.2,N/A,,Overcast,50,2011-10-25 19:12:00
2:32 PM,50.0,39.2,66,29.83,10.0,ENE,18.4,26.5,N/A,,Overcast,60,2011-10-25 19:32:00
2:52 PM,50.0,39.2,66,29.83,10.0,NE,17.3,24.2,N/A,,Overcast,50,2011-10-25 19:52:00
3:32 PM,48.2,37.4,66,29.85,10.0,NE,17.3,28.8,N/A,,Overcast,50,2011-10-25 20:32:00
3:53 PM,48.2,37.4,66,29.87,10.0,NE,11.5,19.6,N/A,,Overcast,50,2011-10-25 20:53:00
4:12 PM,46.4,39.2,76,29.89,10.0,NE,15.0,19.6,N/A,Rain,Light Rain,40,2011-10-25 21:12:00
4:32 PM,46.4,37.4,71,29.90,10.0,NNE,13.8,23.0,N/A,,Overcast,30,2011-10-25 21:32:00
4:52 PM,46.4,37.4,71,29.90,10.0,NNE,13.8,23.0,N/A,,Overcast,30,2011-10-25 21:52:00
5:12 PM,46.4,39.2,76,29.91,10.0,NE,20.7,28.8,N/A,,Overcast,40,2011-10-25 22:12:00
5:32 PM,46.4,37.4,71,29.92,10.0,NNE,17.3,24.2,N/A,,Overcast,30,2011-10-25 22:32:00
5:52 PM,44.6,37.4,76,29.93,10.0,NNE,18.4,24.2,N/A,,Overcast,30,2011-10-25 22:52:00
6:12 PM,44.6,35.6,71,29.94,10.0,NE,16.1,24.2,N/A,,Overcast,40,2011-10-25 23:12:00
6:32 PM,44.6,35.6,71,29.96,10.0,NE,16.1,26.5,N/A,,Overcast,40,2011-10-25 23:32:00
6:52 PM,44.6,35.6,71,29.97,10.0,NNE,16.1,26.5,N/A,,Overcast,30,2011-10-25 23:52:00
7:12 PM,44.6,35.6,71,29.96,10.0,NE,13.8,20.7,N/A,,Overcast,40,2011-10-26 00:12:00
7:32 PM,44.6,35.6,71,29.96,10.0,NNE,10.4,-,N/A,,Overcast,30,2011-10-26 00:32:00
7:52 PM,44.6,35.6,71,29.96,10.0,NNE,17.3,24.2,N/A,,Overcast,30,2011-10-26 00:52:00
8:12 PM,42.8,35.6,76,29.96,10.0,NE,12.7,20.7,N/A,,Overcast,50,2011-10-26 01:12:00
8:32 PM,42.8,35.6,76,29.97,10.0,NNE,15.0,20.7,N/A,,Overcast,30,2011-10-26 01:32:00
8:52 PM,42.8,35.6,76,29.98,10.0,NE,13.8,17.3,N/A,,Overcast,40,2011-10-26 01:52:00
9:12 PM,42.8,35.6,76,30.00,10.0,NNE,11.5,-,N/A,,Overcast,20,2011-10-26 02:12:00
9:32 PM,42.8,35.6,76,30.02,10.0,NNE,6.9,-,N/A,,Overcast,20,2011-10-26 02:32:00
9:52 PM,42.8,35.6,76,30.03,10.0,NNE,10.4,17.3,N/A,,Overcast,20,2011-10-26 02:52:00
10:12 PM,42.8,35.6,76,30.01,10.0,NE,8.1,-,N/A,,Overcast,40,2011-10-26 03:12:00
10:32 PM,41.0,35.6,81,30.02,10.0,NE,6.9,-,N/A,,Overcast,40,2011-10-26 03:32:00
10:52 PM,41.0,35.6,81,30.01,10.0,NE,6.9,-,N/A,,Overcast,50,2011-10-26 03:52:00
11:12 PM,41.0,35.6,81,30.02,10.0,North,6.9,-,N/A,,Overcast,10,2011-10-26 04:12:00
11:32 PM,41.0,35.6,81,30.02,10.0,North,5.8,-,N/A,,Overcast,10,2011-10-26 04:32:00
11:52 PM,41.0,37.4,87,30.02,10.0,North,8.1,-,N/A,,Overcast,10,2011-10-26 04:52:00